Location: Quaker Farms
(41.4276°N, 73.1557°W)
Time: 01:33:48
(UTC+00:00)

Altair - Pass Details

Date: 24 June 2021
Orbit: 1501 x 1682 km, 47.2° (Epoch: 23 July)

Event Time Altitude Azimuth Distance (km) Brightness Sun altitude
Rises 15:28:48 0° 211° (SSW) 4,627 10.1 64.5°
Reaches altitude 10° 15:31:58 10° 205° (SSW) 3,657 9.7 65.0°
Maximum altitude 15:40:30 44° 136° (SE) 2,012 9.8 66.2°
Drops below altitude 10° 15:49:19 10° 69° (ENE) 3,777 9.8 67.3°
Sets 15:52:37 0° 63° (ENE) 4,790 10.2 67.7°
